When you browse on this site, cookies collect data to enhance your experience and personalize the content and advertising you see.
Visit our Privacy Policy to learn more. By continuing to use the site, you agree to this use of cookies and data.
  • In Hungary
  • List of Countries
  • For 7 days
  • Water Temperature
  • Satellite Maps
  • Weather Map
  • News
  • Weather Widgets
  • user-avatar
    Login

    Hourly Weather Puhechang

    Today, 23 April, Tuesday

    Time Temperature Precipitation Wind Pressure Humidity
    00:00 +24°C° 0 mm 1 mps 726 mmHg 79%
    01:00 +24°C° 0 mm 1 mps 727 mmHg 82%
    02:00 +24°C° 0 mm 1 mps 726 mmHg 83%
    03:00 +23°C° 0 mm 1 mps 726 mmHg 84%
    04:00 +23°C° 0 mm 1 mps 726 mmHg 85%
    05:00 +24°C° 0 mm 1 mps 726 mmHg 82%
    06:00 +24°C° 0 mm 1 mps 727 mmHg 80%
    07:00 +25°C° 0 mm 2 mps 727 mmHg 74%
    08:00 +27°C° 0 mm 2 mps 727 mmHg 67%
    09:00 +29°C° 0 mm 1 mps 727 mmHg 61%
    10:00 +31°C° 0 mm 1 mps 727 mmHg 54%
    11:00 +32°C° 0 mm 1 mps 727 mmHg 51%
    12:00 +33°C° 0 mm 1 mps 726 mmHg 48%
    13:00 +34°C° 0 mm 1 mps 725 mmHg 45%
    14:00 +34°C° 0.2 mm 1 mps 725 mmHg 46%
    15:00 +34°C° 0.2 mm 1 mps 724 mmHg 46%
    16:00 +34°C° 0.2 mm 1 mps 723 mmHg 47%
    17:00 +32°C° 0 mm 1 mps 723 mmHg 52%
    18:00 +31°C° 0 mm 1 mps 723 mmHg 58%
    19:00 +29°C° 0 mm 2 mps 723 mmHg 64%
    20:00 +29°C° 0.1 mm 2 mps 724 mmHg 67%
    21:00 +28°C° 0.1 mm 2 mps 724 mmHg 70%
    22:00 +28°C° 0.1 mm 2 mps 725 mmHg 73%
    23:00 +27°C° 0.1 mm 2 mps 724 mmHg 74%

    Tomorrow, 24 April, Wednesday

    Time Temperature Precipitation Wind Pressure Humidity
    00:00 +27°C° 0.1 mm 1 mps 724 mmHg 75%
    01:00 +27°C° 0.1 mm 1 mps 724 mmHg 76%
    02:00 +26°C° 0.2 mm 1 mps 724 mmHg 78%
    03:00 +26°C° 0.2 mm 1 mps 724 mmHg 80%
    04:00 +26°C° 0.2 mm 1 mps 724 mmHg 81%
    05:00 +26°C° 0 mm 1 mps 725 mmHg 79%
    06:00 +27°C° 0 mm 1 mps 725 mmHg 78%
    07:00 +27°C° 0 mm 1 mps 726 mmHg 76%
    08:00 +29°C° 0.1 mm 1 mps 726 mmHg 69%
    09:00 +31°C° 0.1 mm 1 mps 726 mmHg 62%
    10:00 +32°C° 0.1 mm 2 mps 727 mmHg 55%
    11:00 +34°C° 0.2 mm 2 mps 726 mmHg 52%
    12:00 +35°C° 0.2 mm 2 mps 726 mmHg 48%
    13:00 +35°C° 0.2 mm 2 mps 726 mmHg 45%
    14:00 +35°C° 0.1 mm 2 mps 726 mmHg 44%
    15:00 +34°C° 0.1 mm 1 mps 725 mmHg 43%
    16:00 +34°C° 0.1 mm 1 mps 725 mmHg 43%
    17:00 +33°C° 0 mm 1 mps 725 mmHg 47%
    18:00 +31°C° 0 mm 1 mps 725 mmHg 52%
    19:00 +30°C° 0 mm 1 mps 725 mmHg 57%
    20:00 +29°C° 0 mm 1 mps 725 mmHg 59%
    21:00 +29°C° 0 mm 1 mps 726 mmHg 62%
    22:00 +28°C° 0 mm 1 mps 726 mmHg 64%
    23:00 +28°C° 0 mm 1 mps 727 mmHg 65%

    Day after tomorrow, 25 April, Thursday

    Time Temperature Precipitation Wind Pressure Humidity
    00:00 +27°C° 0 mm 1 mps 727 mmHg 66%
    01:00 +27°C° 0 mm 2 mps 727 mmHg 67%
    02:00 +26°C° 0 mm 2 mps 727 mmHg 67%
    03:00 +26°C° 0 mm 2 mps 726 mmHg 68%
    04:00 +26°C° 0 mm 1 mps 726 mmHg 68%
    05:00 +27°C° 0 mm 1 mps 726 mmHg 67%
    06:00 +27°C° 0 mm 1 mps 727 mmHg 65%
    07:00 +28°C° 0 mm 2 mps 727 mmHg 64%
    08:00 +30°C° 0 mm 1 mps 727 mmHg 55%
    09:00 +33°C° 0 mm 1 mps 728 mmHg 47%
    10:00 +35°C° 0 mm 1 mps 728 mmHg 39%
    11:00 +36°C° 0 mm 1 mps 727 mmHg 36%
    12:00 +37°C° 0 mm 1 mps 727 mmHg 33%
    13:00 +39°C° 0 mm 1 mps 726 mmHg 30%
    14:00 +39°C° 0 mm 1 mps 726 mmHg 30%
    15:00 +39°C° 0 mm 2 mps 725 mmHg 30%
    16:00 +39°C° 0 mm 2 mps 724 mmHg 30%
    17:00 +37°C° 0 mm 2 mps 724 mmHg 36%
    18:00 +35°C° 0 mm 2 mps 724 mmHg 43%
    19:00 +33°C° 0 mm 3 mps 724 mmHg 49%
    20:00 +31°C° 0 mm 3 mps 724 mmHg 52%
    21:00 +30°C° 0 mm 3 mps 725 mmHg 55%
    22:00 +30°C° 0 mm 3 mps 726 mmHg 58%
    23:00 +29°C° 0 mm 3 mps 725 mmHg 61%

    26 April, Friday

    Time Temperature Precipitation Wind Pressure Humidity
    00:00 +29°C° 0 mm 3 mps 725 mmHg 64%
    01:00 +28°C° 0 mm 2 mps 725 mmHg 67%
    02:00 +28°C° 0 mm 2 mps 725 mmHg 70%
    03:00 +27°C° 0 mm 2 mps 725 mmHg 72%
    04:00 +27°C° 0 mm 2 mps 725 mmHg 74%
    05:00 +28°C° 0 mm 2 mps 725 mmHg 73%
    06:00 +28°C° 0 mm 2 mps 725 mmHg 72%
    07:00 +29°C° 0 mm 2 mps 725 mmHg 70%
    08:00 +31°C° 0 mm 3 mps 726 mmHg 62%
    09:00 +34°C° 0 mm 3 mps 726 mmHg 53%
    10:00 +36°C° 0 mm 3 mps 726 mmHg 45%
    11:00 +37°C° 0 mm 3 mps 726 mmHg 43%
    12:00 +38°C° 0 mm 3 mps 725 mmHg 41%
    13:00 +38°C° 0 mm 3 mps 725 mmHg 39%
    14:00 +37°C° 0.5 mm 3 mps 724 mmHg 42%
    15:00 +36°C° 0.5 mm 4 mps 724 mmHg 45%
    16:00 +35°C° 0.5 mm 4 mps 723 mmHg 47%
    17:00 +34°C° 0 mm 4 mps 723 mmHg 53%
    18:00 +31°C° 0 mm 3 mps 723 mmHg 59%
    19:00 +30°C° 0 mm 3 mps 723 mmHg 65%
    20:00 +29°C° 0 mm 3 mps 724 mmHg 66%
    21:00 +29°C° 0 mm 3 mps 724 mmHg 68%
    22:00 +29°C° 0 mm 4 mps 725 mmHg 69%
    23:00 +28°C° 0 mm 3 mps 725 mmHg 71%

    27 April, Saturday

    Time Temperature Precipitation Wind Pressure Humidity
    00:00 +28°C° 0 mm 3 mps 725 mmHg 72%
    01:00 +27°C° 0 mm 3 mps 724 mmHg 74%
    02:00 +27°C° 0 mm 3 mps 724 mmHg 75%
    03:00 +27°C° 0 mm 3 mps 724 mmHg 76%
    04:00 +27°C° 0 mm 3 mps 724 mmHg 77%
    05:00 +27°C° 0 mm 3 mps 724 mmHg 75%
    06:00 +28°C° 0 mm 4 mps 725 mmHg 72%
    07:00 +28°C° 0 mm 4 mps 725 mmHg 69%
    08:00 +30°C° 0 mm 4 mps 725 mmHg 64%
    09:00 +32°C° 0 mm 5 mps 726 mmHg 59%
    10:00 +34°C° 0 mm 5 mps 726 mmHg 54%
    11:00 +34°C° 0 mm 5 mps 725 mmHg 52%
    12:00 +35°C° 0 mm 5 mps 725 mmHg 51%
    13:00 +35°C° 0 mm 5 mps 724 mmHg 50%
    14:00 +35°C° 0 mm 5 mps 723 mmHg 51%
    15:00 +35°C° 0 mm 5 mps 722 mmHg 53%
    16:00 +34°C° 0 mm 5 mps 722 mmHg 54%
    17:00 +33°C° 0 mm 4 mps 722 mmHg 59%
    18:00 +32°C° 0 mm 4 mps 722 mmHg 65%
    19:00 +29°C° 0 mm 3 mps 722 mmHg 70%
    20:00 +29°C° 0 mm 3 mps 723 mmHg 71%
    21:00 +29°C° 0 mm 4 mps 723 mmHg 73%
    22:00 +28°C° 0 mm 4 mps 724 mmHg 74%
    23:00 +28°C° 0 mm 3 mps 723 mmHg 75%

    28 April, Sunday

    Time Temperature Precipitation Wind Pressure Humidity
    00:00 +28°C° 0 mm 3 mps 723 mmHg 76%
    01:00 +28°C° 0 mm 2 mps 723 mmHg 76%
    02:00 +28°C° 0 mm 3 mps 723 mmHg 76%
    03:00 +28°C° 0 mm 3 mps 723 mmHg 76%
    04:00 +28°C° 0 mm 3 mps 722 mmHg 75%
    05:00 +28°C° 0 mm 3 mps 723 mmHg 75%
    06:00 +28°C° 0 mm 3 mps 723 mmHg 74%
    07:00 +29°C° 0 mm 3 mps 724 mmHg 74%
    08:00 +30°C° 0 mm 3 mps 724 mmHg 68%
    09:00 +32°C° 0 mm 4 mps 725 mmHg 62%
    10:00 +34°C° 0 mm 4 mps 725 mmHg 56%
    11:00 +34°C° 0.1 mm 3 mps 725 mmHg 55%
    12:00 +34°C° 0.1 mm 3 mps 724 mmHg 54%
    13:00 +35°C° 0.1 mm 2 mps 724 mmHg 53%
    14:00 +34°C° 0.9 mm 2 mps 723 mmHg 55%
    15:00 +33°C° 0.9 mm 1 mps 723 mmHg 58%
    16:00 +32°C° 0.9 mm 1 mps 723 mmHg 60%
    17:00 +31°C° 0.2 mm 1 mps 723 mmHg 64%
    18:00 +30°C° 0.2 mm 1 mps 723 mmHg 68%
    19:00 +29°C° 0.2 mm 1 mps 724 mmHg 72%
    20:00 +29°C° 0.5 mm 1 mps 724 mmHg 74%
    21:00 +28°C° 0.5 mm 1 mps 724 mmHg 76%
    22:00 +28°C° 0.5 mm 1 mps 725 mmHg 79%
    23:00 +27°C° 1.7 mm 1 mps 724 mmHg 82%
    Show more